Asyut, Egypt

7:27 AM EET on February 24, 2017 (GMT +0200)
Asyut International

Weather History for HEAT - November, 2012

Change the Weather History Date:

Wednesday, November 7, 2012

  Actual Average Record
Temperature  
Mean Temperature 74 °F -  
Max Temperature 87 °F 75 °F - ()
Min Temperature 61 °F 49 °F - ()
Cooling Degree Days 9    
Growing Degree Days 24 (Base 50)    
Moisture  
Dew Point 60 °F    
Average Humidity 66    
Maximum Humidity 94    
Minimum Humidity 30    
Precipitation  
Precipitation 0.00 in 0.00 in - ()
Sea Level Pressure  
Sea Level Pressure 29.99 in    
Wind  
Wind Speed 10 mph ()    
Max Wind Speed 17 mph    
Max Gust Speed -    
Visibility 3.3 miles    
Events      
T = Trace of Precipitation, MM = Missing Value Source: Averaged Metar Reports

Daily Weather History Graph

Daily Weather History Graph

Search for Another Location

Airport or City:

Trip Planner

Search our weather history database for the weather conditions in past years. The results will help you decide how hot, cold, wet, or windy it might be!

Date:

Astronomy

Nov. 07, 2012 Rise Set
Actual Time 6:10 AM EET 5:08 PM EET
Civil Twilight 5:45 AM EET 5:32 PM EET
Nautical Twilight 5:18 AM EET 6:00 PM EET
Astronomical Twilight 4:50 AM EET 6:28 PM EET
Moon No Moon Rise 12:31 PM EET (11/7)
Length of Visible Light 11h 47m
Length of Day
10h 58m
Last Quarter, 46% of the Moon is Illuminated
Nov 7
Last Quarter
Nov 14
New
Nov 20
First Quarter
Nov 28
Full
Dec 6
Last Quarter

Hourly Weather History & Observations

Time (EET) Temp. Heat Index Dew Point Humidity Pressure Visibility Wind Dir Wind Speed Gust Speed Precip Events Conditions
12:00 AM 66.2 °F - 60.8 °F 83% 29.98 in - NW 10.4 mph - N/A   Clear
1:00 AM 64.4 °F - 59.0 °F 83% 29.98 in - NW 9.2 mph - N/A   Clear
2:00 AM 66 °F - 58 °F 69% 29.97 in 6 mi NNW 8.1 mph - -  
2:00 AM 66.2 °F - 59.0 °F 78% 29.98 in - NNW 8.1 mph - N/A   Clear
3:00 AM 64.4 °F - 59.0 °F 83% 29.98 in - North 9.2 mph - N/A   Clear
4:00 AM 62.6 °F - 59.0 °F 88% 29.98 in - NNW 9.2 mph - N/A   Clear
5:00 AM 62.6 °F - 57.2 °F 82% 29.98 in - NNW 6.9 mph - N/A   Clear
6:00 AM 60.8 °F - 59.0 °F 94% 30.01 in 1.9 mi NNW 9.2 mph - N/A   Mist
7:00 AM 64.4 °F - 59.0 °F 83% 30.01 in 1.2 mi North 6.9 mph - N/A   Mist
8:00 AM 67 °F - 62 °F 79% 30.02 in 1 mi North 10.4 mph - -   Mist
8:00 AM 66.2 °F - 62.6 °F 88% 30.04 in 1.2 mi North 10.4 mph - N/A   Mist
9:00 AM 69.8 °F - 62.6 °F 78% 30.04 in 2.5 mi North 8.1 mph - N/A   Mist
10:00 AM 73.4 °F - 62.6 °F 69% 30.04 in 3.7 mi North 12.7 mph - N/A   Unknown
11:00 AM 77.0 °F - 60.8 °F 57% 30.01 in - North 15.0 mph - N/A   Clear
12:00 PM 80.6 °F 81.5 °F 60.8 °F 51% 30.01 in - North 13.8 mph - N/A   Clear
1:00 PM 82.4 °F 82.9 °F 60.8 °F 48% 29.98 in - North 12.7 mph - N/A   Clear
2:00 PM 86 °F - 59 °F 30% 29.94 in 6 mi North 11.5 mph - -  
2:00 PM 86.0 °F 85.4 °F 59.0 °F 40% 29.98 in - North 11.5 mph - N/A   Clear
3:00 PM 87.8 °F 87.1 °F 59.0 °F 38% 29.95 in - NNW 13.8 mph - N/A   Clear
4:00 PM 86.0 °F 85.4 °F 59.0 °F 40% 29.95 in - NNW 17.3 mph - N/A   Clear
5:00 PM 82.4 °F 82.9 °F 60.8 °F 48% 29.95 in - NNW 17.3 mph - N/A   Clear
7:00 PM 77.0 °F - 60.8 °F 57% 29.98 in - NNW 15.0 mph - N/A   Clear
8:00 PM 75 °F - 60 °F 49% 29.97 in 6 mi NNW 15.0 mph - -  
8:00 PM 75.2 °F - 59.0 °F 57% 29.98 in - NNW 15.0 mph - N/A   Clear
9:00 PM 73.4 °F - 60.8 °F 65% 29.98 in - NNW 15.0 mph - N/A   Clear
10:00 PM 71.6 °F - 60.8 °F 69% 29.98 in - NNW 13.8 mph - N/A   Clear
11:00 PM 69.8 °F - 60.8 °F 73% 29.98 in - NW 11.5 mph - N/A   Clear